KINEIS-1E

Last updated on Wed Sep 09 2026 00:02:55 GMT+0000 (Coordinated Universal Time)

1 60083U 24114E 26251.56054936 .00000514 00000+0 73507-4 0 9998 2 60083 97.8937 273.6714 0001441 329.4621 30.6508 14.80764604119721
UTC large
Height (km)
Speed (km/s)
/
Latitude / Longitude
Inclination (degrees)
Orbital Period (minutes)
Azimuth
Elevation
Range (km)
Doppler Factor

Next 0 passes for location: London (51.5072 / 0.1276)

No passes found over London.
KINEIS-1E